MOLNIYA 3-10

Last updated on Sun Jun 25 2023 00:03:02 GMT+0000 (Coordinated Universal Time)

1 11057U 78095A 23175.17086934 -.00000050 00000+0 42429-4 0 9999 2 11057 63.2504 263.6070 5753869 313.0717 11.3415 4.09887399398973

Satellite not in orbit

MOLNIYA 3-10